Creek Data

    Home     View Charts     View Raw Data     Messages

ID Distance Battery Voltage Battery Current Internal Temp Internal Humidity External Temp Solar Input rssi snr Time Stamp Record
65325 15.2 3.84 0 72 43 62 5.1 -75 8 02/04/2026 12:30 PM 48108
65324 15.2 3.84 0 71 44 63 5.1 -74 9 02/04/2026 12:15 PM 48107
65323 15.2 3.85 6 70 43 61 5.1 -75 8 02/04/2026 12:00 PM 48106
65322 15.2 3.95 0 67 44 61 5.1 -75 8 02/04/2026 11:45 AM 48105
65321 15.2 3.84 6 66 44 59 5.1 -75 8 02/04/2026 11:30 AM 48104
65320 15.1 4.09 7 64 44 59 5.1 -74 7 02/04/2026 11:15 AM 48103
65319 15.1 3.84 7 62 44 58 5.1 -75 8 02/04/2026 11:00 AM 48102
65318 15.2 3.84 0 60 44 56 5.1 -75 8 02/04/2026 10:45 AM 48101
65317 15.1 3.84 0 56 44 54 5.1 -76 8 02/04/2026 10:15 AM 48099
65316 15.1 3.84 7 52 45 52 5.1 -77 8 02/04/2026 09:45 AM 48097
65315 15.1 3.84 0 50 46 50 5.1 -81 7 02/04/2026 09:30 AM 48096
65314 15.1 3.89 7 48 46 49 5.1 -80 8 02/04/2026 09:15 AM 48095
65313 15.0 3.84 7 46 46 47 5.1 -83 8 02/04/2026 09:00 AM 48094
65312 15.0 4.05 88 43 47 46 4.5 -81 7 02/04/2026 08:30 AM 48092
65311 15.0 3.96 46 41 47 43 4.5 -81 7 02/04/2026 08:15 AM 48091
65310 14.9 3.93 40 40 48 41 4.5 -81 8 02/04/2026 08:00 AM 48090
65309 14.9 3.90 6 39 48 40 4.5 -82 6 02/04/2026 07:45 AM 48089
65308 14.9 3.76 0 38 49 40 4.5 -82 7 02/04/2026 07:30 AM 48088
65307 14.9 3.81 -8 37 49 40 4.5 -82 7 02/04/2026 07:15 AM 48087
65306 14.9 3.72 -5 37 49 39 1.5 -81 8 02/04/2026 07:00 AM 48086
65305 14.9 3.72 -5 37 49 39 0.2 -81 7 02/04/2026 06:45 AM 48085
65304 14.9 3.81 -5 37 50 40 0 -82 8 02/04/2026 06:30 AM 48084
65303 14.9 3.72 -5 37 50 40 0.1 -82 7 02/04/2026 06:15 AM 48083
65302 14.9 3.82 -5 37 49 39 0 -82 8 02/04/2026 06:00 AM 48082
65301 14.9 3.73 -5 37 50 40 0 -82 7 02/04/2026 05:45 AM 48081